Fergus Falls, MN

2:33 AM CDT on April 26, 2017 (GMT -0500)
Fergus Falls Municipal-Mickelson

Weather History for KFFM - November, 2013

Change the Weather History Date:

Friday, November 1, 2013

  Actual Average Record
Temperature  
Mean Temperature 35 °F -  
Max Temperature 42 °F 47 °F 71 °F (1990)
Min Temperature 28 °F 29 °F 6 °F (1984)
Degree Days  
Heating Degree Days 30    
Moisture  
Dew Point 33 °F    
Average Humidity 88    
Maximum Humidity 100    
Minimum Humidity 75    
Precipitation  
Precipitation 0.00 in - - ()
Sea Level Pressure  
Sea Level Pressure 29.68 in    
Wind  
Wind Speed 6 mph (NW)    
Max Wind Speed 12 mph    
Max Gust Speed -    
Visibility 8 miles    
Events      
Averages and records for this station are not official NWS values.
T = Trace of Precipitation, MM = Missing Value Source: NWS Daily Summary

Daily Weather History Graph

Daily Weather History Graph

Search for Another Location

Airport or City:

Trip Planner

Search our weather history database for the weather conditions in past years. The results will help you decide how hot, cold, wet, or windy it might be!

Date:

Astronomy

Nov. 01, 2013 Rise Set
Actual Time 8:06 AM CDT 6:09 PM CDT
Civil Twilight 7:34 AM CDT 6:40 PM CDT
Nautical Twilight 6:59 AM CDT 7:16 PM CDT
Astronomical Twilight 6:24 AM CDT 7:51 PM CDT
Moon 5:53 AM CDT (11/1) 5:07 PM CDT (11/1)
Length of Visible Light 11h 06m
Length of Day
10h 03m
Waning Crescent, 4% of the Moon is Illuminated
Nov 1
Waning Crescent
Nov 3
New
Nov 9
First Quarter
Nov 17
Full
Nov 25
Last Quarter

Hourly Weather History & Observations

Time (CDT) Temp. Windchill Dew Point Humidity Pressure Visibility Wind Dir Wind Speed Gust Speed Precip Events Conditions
12:13 AM 37.4 °F 32.1 °F 35.6 °F 93% 29.48 in 10.0 mi NW 6.9 mph - N/A   Mostly Cloudy
12:33 AM 37.4 °F 31.4 °F 35.6 °F 93% 29.48 in 10.0 mi NW 8.1 mph - N/A   Clear
12:53 AM 37.4 °F 30.8 °F 35.6 °F 93% 29.48 in 10.0 mi NW 9.2 mph - N/A   Scattered Clouds
1:13 AM 35.6 °F 28.6 °F 33.8 °F 93% 29.49 in 10.0 mi NNW 9.2 mph - N/A   Clear
1:33 AM 35.6 °F 29.2 °F 33.8 °F 93% 29.49 in 7.0 mi NW 8.1 mph - N/A   Clear
1:53 AM 35.6 °F 29.2 °F 33.8 °F 93% 29.50 in 7.0 mi NW 8.1 mph - N/A   Clear
2:13 AM 35.6 °F 31.7 °F 33.8 °F 93% 29.51 in 7.0 mi NW 4.6 mph - N/A   Clear
2:33 AM 33.8 °F 29.6 °F 33.8 °F 100% 29.51 in 5.0 mi NW 4.6 mph - N/A   Clear
2:53 AM 33.8 °F 29.6 °F 32.0 °F 93% 29.52 in 7.0 mi NW 4.6 mph - N/A   Clear
3:13 AM 32.0 °F 26.4 °F 30.2 °F 93% 29.53 in 5.0 mi NW 5.8 mph - N/A   Clear
3:33 AM 32.0 °F 26.4 °F 30.2 °F 93% 29.53 in 5.0 mi NW 5.8 mph - N/A   Clear
3:53 AM 33.8 °F 28.6 °F 32.0 °F 93% 29.54 in 7.0 mi NW 5.8 mph - N/A   Clear
4:13 AM 32.0 °F 26.4 °F 30.2 °F 93% 29.54 in 7.0 mi WNW 5.8 mph - N/A   Clear
4:33 AM 32.0 °F 27.5 °F 30.2 °F 93% 29.54 in 7.0 mi NW 4.6 mph - N/A   Clear
4:53 AM 32.0 °F - 30.2 °F 93% 29.55 in 7.0 mi Calm Calm - N/A   Clear
5:13 AM 32.0 °F - 30.2 °F 93% 29.55 in 7.0 mi Calm Calm - N/A   Clear
5:33 AM 30.2 °F - 30.2 °F 100% 29.56 in 7.0 mi Calm Calm - N/A   Clear
5:53 AM 30.2 °F - 30.2 °F 100% 29.57 in 7.0 mi Calm Calm - N/A   Clear
6:13 AM 30.2 °F - 30.2 °F 100% 29.57 in 5.0 mi Calm Calm - N/A   Clear
6:33 AM 30.2 °F - 30.2 °F 100% 29.58 in 5.0 mi Calm Calm - N/A   Clear
6:53 AM 30.2 °F - 30.2 °F 100% 29.58 in 4.0 mi Calm Calm - N/A   Clear
7:13 AM 30.2 °F - 28.4 °F 93% 29.58 in 5.0 mi Calm Calm - N/A   Clear
7:33 AM 28.4 °F - 28.4 °F 100% 29.58 in 4.0 mi Calm Calm - N/A   Clear
7:53 AM 28.4 °F - 28.4 °F 100% 29.58 in 4.0 mi Calm Calm - N/A   Clear
8:13 AM 28.4 °F - 28.4 °F 100% 29.59 in 4.0 mi Calm Calm - N/A   Clear
8:33 AM 28.4 °F - 28.4 °F 100% 29.60 in 2.5 mi Calm Calm - N/A   Clear
8:53 AM 28.4 °F 24.6 °F 28.4 °F 100% 29.61 in 2.5 mi WSW 3.5 mph - N/A   Clear
9:13 AM 30.2 °F - 28.4 °F 93% 29.61 in 3.0 mi Calm Calm - N/A   Clear
9:33 AM 33.8 °F - 32.0 °F 93% 29.61 in 5.0 mi Calm Calm - N/A   Mostly Cloudy
9:53 AM 33.8 °F - 30.2 °F 87% 29.62 in 7.0 mi Calm Calm - N/A   Overcast
10:13 AM 33.8 °F - 32.0 °F 93% 29.62 in 7.0 mi Calm Calm - N/A   Overcast
10:33 AM 33.8 °F 29.6 °F 32.0 °F 93% 29.63 in 7.0 mi West 4.6 mph - N/A   Overcast
10:53 AM 33.8 °F 27.0 °F 33.8 °F 100% 29.63 in 7.0 mi West 8.1 mph - N/A   Overcast
11:13 AM 35.6 °F 29.2 °F 33.8 °F 93% 29.64 in 10.0 mi NW 8.1 mph - N/A   Overcast
11:33 AM 35.6 °F 29.2 °F 33.8 °F 93% 29.64 in 10.0 mi WNW 8.1 mph - N/A   Mostly Cloudy
11:53 AM 35.6 °F 29.2 °F 33.8 °F 93% 29.65 in 10.0 mi WNW 8.1 mph - N/A   Mostly Cloudy
12:13 PM 37.4 °F 30.8 °F 33.8 °F 87% 29.65 in 10.0 mi WNW 9.2 mph - N/A   Overcast
12:33 PM 37.4 °F 30.8 °F 33.8 °F 87% 29.66 in 10.0 mi NW 9.2 mph - N/A   Overcast
12:53 PM 37.4 °F 32.1 °F 33.8 °F 87% 29.67 in 10.0 mi NW 6.9 mph - N/A   Overcast
1:13 PM 37.4 °F 32.1 °F 33.8 °F 87% 29.67 in 10.0 mi NW 6.9 mph - N/A   Overcast
1:33 PM 37.4 °F 32.1 °F 35.6 °F 93% 29.68 in 10.0 mi NW 6.9 mph - N/A   Overcast
1:53 PM 39.2 °F 33.0 °F 35.6 °F 87% 29.69 in 10.0 mi NW 9.2 mph - N/A   Overcast
2:13 PM 39.2 °F 32.0 °F 33.8 °F 81% 29.69 in 10.0 mi NNW 11.5 mph - N/A   Mostly Cloudy
2:33 PM 39.2 °F 33.0 °F 33.8 °F 81% 29.70 in 10.0 mi NW 9.2 mph - N/A   Scattered Clouds
2:53 PM 39.2 °F 33.6 °F 33.8 °F 81% 29.71 in 10.0 mi NNW 8.1 mph - N/A   Scattered Clouds
3:13 PM 41.0 °F 35.8 °F 35.6 °F 81% 29.72 in 10.0 mi NW 8.1 mph - N/A   Scattered Clouds
3:33 PM 42.8 °F 38.0 °F 35.6 °F 76% 29.72 in 10.0 mi NW 8.1 mph - N/A   Scattered Clouds
3:53 PM 42.8 °F 37.5 °F 35.6 °F 76% 29.73 in 10.0 mi NW 9.2 mph - N/A   Mostly Cloudy
4:13 PM 42.8 °F 37.0 °F 35.6 °F 76% 29.75 in 10.0 mi NW 10.4 mph - N/A   Scattered Clouds
4:33 PM 42.8 °F 38.0 °F 35.6 °F 76% 29.76 in 10.0 mi North 8.1 mph - N/A   Clear
4:53 PM 42.8 °F 37.5 °F 35.6 °F 76% 29.76 in 10.0 mi NNW 9.2 mph - N/A   Clear
5:13 PM 42.8 °F 38.0 °F 35.6 °F 76% 29.78 in 10.0 mi NW 8.1 mph - N/A   Clear
5:33 PM 41.0 °F 36.4 °F 33.8 °F 76% 29.78 in 10.0 mi NNW 6.9 mph - N/A   Scattered Clouds
5:53 PM 41.0 °F 37.1 °F 35.6 °F 81% 29.79 in 10.0 mi NNW 5.8 mph - N/A   Scattered Clouds
6:13 PM 41.0 °F 38.0 °F 35.6 °F 81% 29.80 in 10.0 mi NW 4.6 mph - N/A   Overcast
6:33 PM 39.2 °F 35.0 °F 35.6 °F 87% 29.81 in 10.0 mi NW 5.8 mph - N/A   Overcast
6:53 PM 39.2 °F 34.2 °F 35.6 °F 87% 29.82 in 10.0 mi NW 6.9 mph - N/A   Overcast
7:13 PM 41.0 °F 35.2 °F 33.8 °F 76% 29.83 in 10.0 mi NNW 9.2 mph - N/A   Mostly Cloudy
7:33 PM 41.0 °F 36.4 °F 33.8 °F 76% 29.84 in 10.0 mi NNW 6.9 mph - N/A   Mostly Cloudy
7:53 PM 41.0 °F 35.2 °F 33.8 °F 76% 29.85 in 10.0 mi NNW 9.2 mph - N/A   Overcast
8:13 PM 41.0 °F 35.8 °F 33.8 °F 76% 29.86 in 10.0 mi NNW 8.1 mph - N/A   Overcast
8:33 PM 41.0 °F 34.7 °F 33.8 °F 76% 29.87 in 10.0 mi NNW 10.4 mph - N/A   Overcast
8:53 PM 41.0 °F 36.4 °F 33.8 °F 76% 29.87 in 10.0 mi NNW 6.9 mph - N/A   Overcast
9:13 PM 41.0 °F 34.7 °F 33.8 °F 76% 29.88 in 10.0 mi NNW 10.4 mph - N/A   Overcast
9:33 PM 41.0 °F 35.2 °F 33.8 °F 76% 29.89 in 10.0 mi NNW 9.2 mph - N/A   Overcast
9:53 PM 41.0 °F 34.7 °F 33.8 °F 76% 29.90 in 10.0 mi NNW 10.4 mph - N/A   Overcast
10:13 PM 39.2 °F 32.5 °F 33.8 °F 81% 29.90 in 10.0 mi NW 10.4 mph - N/A   Mostly Cloudy
10:33 PM 37.4 °F 31.4 °F 32.0 °F 81% 29.91 in 10.0 mi NNW 8.1 mph - N/A   Scattered Clouds
10:53 PM 35.6 °F 28.0 °F 30.2 °F 81% 29.92 in 10.0 mi NNW 10.4 mph - N/A   Clear
11:13 PM 37.4 °F 30.8 °F 30.2 °F 75% 29.92 in 10.0 mi NNW 9.2 mph - N/A   Mostly Cloudy
11:33 PM 35.6 °F 29.9 °F 30.2 °F 81% 29.93 in 10.0 mi NW 6.9 mph - N/A   Scattered Clouds
11:53 PM 33.8 °F 28.6 °F 30.2 °F 87% 29.93 in 10.0 mi NW 5.8 mph - N/A   Clear